Hourly Data Report for October 04, 2017

All times are specified in Local Standard Time (LST). Add 1 hour to adjust for Daylight Saving Time where and when it is observed.

DAUPHIN
MANITOBA

51°06'03.000" N
100°03'09.000" W
304.50 m
5040689
71036
YDN

Related Data

No related data is available for this station

Download Data

Hourly Data (October 2017)
Hourly Data Report for October 4, 2017
Temp Definition
°C
Dew Point Temp Definition
°C
Rel Hum Definition
%
Wind Dir Definition
10's deg

Wind Spd Definition
km/h
Visibility Definition
km
Stn Press Definition
kPa
Hmdx Definition


Wind Chill Definition


Weather Definition


TIME
00:00 Legend Double Dagger 5.8 5.7 99 28 8 3.2 98.51     Fog
01:00 Legend Double Dagger 6.2 5.0 92 28 21 16.1 98.52     LegendNANA
02:00 Legend Double Dagger 5.6 4.6 93 27 21 16.1 98.53     LegendNANA
03:00 Legend Double Dagger 5.2 3.4 88 27 28 16.1 98.45     LegendNANA
04:00 Legend Double Dagger 5.3 3.7 89 27 30 16.1 98.47     LegendNANA
05:00 Legend Double Dagger 4.2 2.9 91 26 18 16.1 98.50     LegendNANA
06:00 Legend Double Dagger 3.7 2.5 92 24 15 16.1 98.43     LegendNANA
07:00 Legend Double Dagger 4.0 2.2 88 25 21 16.1 98.37     LegendNANA
08:00 Legend Double Dagger 5.9 2.2 77 26 24 16.1 98.40     LegendNANA
09:00 Legend Double Dagger 7.8 2.4 69 26 32 16.1 98.34     LegendNANA
10:00 Legend Double Dagger 9.6 2.5 61 26 30 16.1 98.30     LegendNANA
11:00 Legend Double Dagger 10.7 0.4 49 28 34 16.1 98.32     LegendNANA
12:00 Legend Double Dagger 11.0 0.3 48 27 35 16.1 98.30     LegendNANA
13:00 Legend Double Dagger 12.4 -1.5 38 28 39 16.1 98.22     LegendNANA
14:00 Legend Double Dagger 13.2 -1.5 36 28 34 16.1 98.20     LegendNANA
15:00 Legend Double Dagger 13.5 -0.8 37 30 28 16.1 98.21     LegendNANA
16:00 Legend Double Dagger 13.5 -0.9 37 29 22 16.1 98.19     LegendNANA
17:00 Legend Double Dagger 12.9 -0.1 41 28 18 16.1 98.17     LegendNANA
18:00 Legend Double Dagger 10.3 0.3 50 26 15 16.1 98.20     LegendNANA
19:00 Legend Double Dagger 7.7 0.9 62 27 13 16.1 98.22     LegendNANA
20:00 Legend Double Dagger 4.6 0.6 75 26 13 16.1 98.27     LegendNANA
21:00 Legend Double Dagger 5.0 1.3 77 26 13 16.1 98.31     LegendNANA
22:00 Legend Double Dagger 3.3 0.6 82 27 11 16.1 98.35     LegendNANA
23:00 Legend Double Dagger 2.4 0.3 86 27 9 16.1 98.38     LegendNANA

Notes on Data Quality.

Legend

  • E = Estimated
  • M = Missing
  • NA = Not Available
  • ‡ = Partner data that is not subject to review by the National Climate Archives
Date modified: